www.pogodaiklimat.ru

Погода и климат >> Архив погоды >> Россия >> Ямало-Ненецкий АО >> Новый Уренгой


АРХИВ ПОГОДЫ в Новом Уренгое

Время (UTC), дата Ветер
(напр.,м/с)
 
Видим.   Явления Облачность Т
(С)
Тd
(С)
f
(%)
Тe
(С)
Тes
(С)
Комфортность P
(гПа)
Po
(гПа)
Тmin
(С)
Tmax
(С)
R
(мм)
R24
(мм)
S
(см)
06 12.07 ЮЗ 10-13
{15}
50 км 8/3 1500 м
[Cu hum Ac trans Ci fib]
+23.8 +11.5 46 +25 +26 комфорт 1007.0 999.8
09 12.07 ЮЗ 10-13
{17}
50 км 8/5 1500 м
[Cu med, cong Ac trans Ci fib]
+24.2 +8.9 38 +25 +25 комфорт 1008.1 1000.9
12 12.07 З 6
{15}
10 км слаб. ливневой дождь 9/5 1000 м
[Cb calv Ac trans Ci fib]
+21.6 +12.0 54 +24 +24 комфорт 1009.2 1002.0
15 12.07 З 5
{11}
50 км 6/3 1500 м
[Cu hum Ac trans Ci fib]
+22.1 +10.5 48 +24 +24 комфорт 1010.2 1003.0 +25.2 0.1
18 12.07 ЮЗ 3 20 км 10/0
[Ac trans Ci fib]
+15.6 +10.8 73 +15 +15 тепло 1011.9 1004.6
21 12.07 З 2 50 км 8/0
[Ac trans Ci fib]
+11.0 +9.1 88 +10 +10 по сезону 1013.1 1005.6
00 13.07 СЗ 3 50 км 10/3 1000 м
[Cb calv Ac trans Ci fib]
+14.1 +12.0 87 +13 +13 тепло 1014.6 1007.2
03 13.07 З 5 50 км 8/5 1000 м
[Cu hum Ci fib]
+16.4 +9.0 62 +16 +17 тепло 1015.7 1008.3 +10.2
06 13.07 СЗ 4
{10}
20 км 10/6 600 м
[Cb calv Ac und]
+16.3 +9.1 62 +16 +17 по сезону 1017.1 1009.7
09 13.07 СЗ 4 20 км 10/6 1000 м
[Sc Ac und]
+16.3 +8.2 59 +16 +16 по сезону 1019.2 1011.8
12 13.07 СЗ 4
{10}
50 км 8/4 1000 м
[Cu hum Ac trans]
+18.0 +7.5 50 +18 +19 по сезону 1019.7 1012.3
15 13.07 С 2 50 км 8/3 1000 м
[Sc Ci fib]
+17.3 +7.5 53 +18 +18 тепло 1020.3 1012.9 +18.3
18 13.07 СВ 1 20 км 10/3 1500 м
[Sc Ci fib]
+11.5 +7.6 77 +11 +11 по сезону 1020.9 1013.4
21 13.07 штиль 0 50 км 10/4 1500 м
[Sc Ci fib]
+9.0 +7.5 90 +8 +8 прохладно 1020.4 1012.8
00 14.07 ЮВ 4 50 км 10/4 1500 м
[Sc Ac trans Ci fib]
+13.0 +8.9 76 +11 +12 по сезону 1019.9 1012.4
03 14.07 ЮВ 3 10 км слаб. ливневой дождь 10/4 1000 м
[Cb calv Ac und]
+13.5 +9.4 76 +12 +13 по сезону 1020.2 1012.7 +7.5 0.1
06 14.07 ЮВ 7-10
{10}
50 км {ливн. осадки, дождь} 10/3 1000 м
[Cb calv Ac und]
+16.4 +10.3 67 +15 +16 по сезону 1017.3 1009.9
09 14.07 ЮВ 7
{10}
10 км слаб. ливневой дождь, в посл. час гроза 10/3 1000 м
[Cb calv Ac und]
+15.9 +12.3 79 +14 +15 прохладно 1015.0 1007.6
12 14.07 ЮВ 5
{13}
20 км {гроза, ливн. осадки} 10/0
[Ac trans Ci fib]
+19.5 +13.0 66 +21 +22 комфорт 1013.4 1006.2
15 14.07 ЮВ 5 50 км 10/0
[Ac trans Cs]
+19.8 +13.0 65 +21 +21 комфорт 1012.5 1005.3 +20.2 4
18 14.07 ЮВ 4 20 км 10/0
[Ac trans Ci fib]
+18.1 +13.6 75 +18 +18 тепло 1012.0 1004.7
21 14.07 Ю 5 50 км 8/0
[Ac trans Ci fib]
+18.1 +14.8 81 +18 +18 тепло 1011.4 1004.1
00 15.07 Ю 4 50 км 6/0
[Ci fib]
+20.5 +16.8 79 +24 +25 комфорт 1011.3 1004.1
03 15.07 Ю 5 50 км 8/0
[Ci fib]
+27.1 +18.5 59 +32 +35 очень
душно
1010.6 1003.5 +17.8
06 15.07 Ю 9-13
{13}
50 км 5/0
[Ci fib]
+31.4 +14.7 36 +33 +34 жарко 1010.0 1003.1
09 15.07 Ю 7-12
{13}
50 км 8/3 1000 м
[Cu hum Ci fib]
+32.8 +14.0 32 +34 +36 очень
жарко
1009.8 1002.9
12 15.07 ЮЗ 6
{12}
50 км 8/1 1500 м
[Cu hum Ci fib]
+32.8 +12.7 29 +33 +34 жарко 1010.0 1003.1
15 15.07 Ю 2 50 км 10/0
[Ci fib]
+28.4 +17.8 53 +33 +33 очень
душно
1010.6 1003.7 +33.3
18 15.07 Ю 3 20 км 5/0
[Ac trans Ci fib]
+22.0 +16.1 69 +26 +26 душно 1011.4 1004.2
21 15.07 СЗ 2 50 км 10/0
[Ci fib]
+17.7 +16.5 93 +18 +18 тепло 1012.1 1004.8
00 16.07 СЗ 1 50 км 4/0
[Ci fib]
+21.4 +17.5 78 +25 +27 комфорт 1012.7 1005.5
03 16.07 ЮВ 2 50 км 5/0
[Ci fib]
+28.6 +17.6 51 +33 +38 очень
душно
1012.8 1005.8 +17.5
06 16.07 ЮЗ 3 50 км 8/5 1500 м
[Cu hum Ac trans Ci fib]
+31.8 +17.3 42 +36 +39 очень
душно
1012.7 1005.7
09 16.07 ЮВ 2 50 км 9/4 1500 м
[Cu hum Ac trans Ci fib]
+33.1 +15.7 35 +35 +39 душно 1012.0 1005.0
12 16.07 В 3 50 км 9/3 1500 м
[Cu hum Ac trans Ci fib]
+31.8 +16.0 39 +35 +36 очень
душно
1011.6 1004.7
15 16.07 В 3 50 км 6/1 1500 м
[Cu hum Ac trans Ci fib]
+30.3 +16.2 43 +34 +34 очень
душно
1011.4 1004.5 +33.8
18 16.07 СВ 3 20 км 4/0
[Ci fib]
+24.9 +18.7 68 +30 +30 душно 1011.9 1004.8
21 16.07 В 1 50 км 4/0
[Ci fib]
+20.6 +18.6 88 +26 +26 душно 1012.0 1004.8
00 17.07 В 2 50 км 4/0
[Ci fib]
+23.8 +17.1 66 +28 +29 душно 1012.2 1005.1
03 17.07 СВ 4 20 км 6/0
[Ci fib]
+28.0 +16.7 50 +32 +35 душно 1012.2 1005.1 +20.4
06 17.07 В 7-10
{11}
50 км 6/0
[Ci fib]
+31.4 +13.2 33 +32 +35 жарко 1010.9 1004.0
09 17.07 В 6-11
{11}
50 км 6/0
[Ci fib]
+32.5 +12.7 30 +33 +36 жарко 1010.0 1003.1
12 17.07 В 6
{11}
50 км 8/0
[Ci fib]
+32.6 +13.1 31 +34 +35 очень
жарко
1009.6 1002.7
15 17.07 В 3 50 км 9/0
[Ci fib]
+29.2 +13.8 39 +31 +31 жарко 1009.5 1002.6 +33.1
18 17.07 СВ 4 20 км 9/0
[Ci fib]
+25.6 +17.9 62 +30 +30 душно 1010.1 1003.0
21 17.07 СВ 4 20 км 9/0
[Ci fib]
+22.1 +15.1 65 +26 +26 душно 1009.7 1002.5
00 18.07 В 4 50 км 9/0
[Ci fib]
+22.6 +14.9 62 +26 +27 жарко 1010.1 1002.9
03 18.07 В 4 50 км 8/0
[Ci fib]
+26.8 +15.6 50 +30 +33 душно 1010.2 1003.1 +21.5
06 18.07 В 4 50 км 8/0
[Ac trans Ci fib]
+31.0 +15.1 38 +33 +38 душно 1009.2 1002.3
09 18.07 СВ 6
{10}
50 км 10/4 1000 м
[Cu hum Ci fib]
+33.0 +14.2 32 +34 +36 очень
жарко
1008.7 1001.8
12 18.07 В 5 50 км 10/4 1000 м
[Cu hum Ci fib]
+32.2 +13.6 32 +33 +34 жарко 1008.9 1002.0
15 18.07 СВ 3 50 км 10/3 1000 м
[Cu hum Ci fib]
+30.5 +14.6 38 +33 +33 душно 1008.8 1001.9 +33.3
18 18.07 В 4 20 км 10/1 1500 м
[Cu hum Ci fib]
+26.7 +17.4 57 +31 +31 душно 1009.5 1002.4
21 18.07 В 4 20 км 10/3 1500 м
[Cu hum Ci fib]
+23.6 +18.4 73 +28 +28 душно 1009.7 1002.6
00 19.07 В 4 50 км 10/1 1500 м
[Cu hum Ci fib]
+23.1 +18.7 76 +29 +30 очень
душно
1010.4 1003.3
03 19.07 ЮВ 3 50 км 10/0
[Cs]
+27.6 +18.7 58 +33 +37 очень
душно
1010.8 1003.7 +22.5

 

Местоположение метеостанции Новый Уренгой (Ямало-Ненецкий АО, Россия): широта 66.10 долгота 76.78 высота над уровнем моря 62 м.

В архиве по умолчанию представлена погода в Новом Уренгое за последнюю неделю. Архивные данные за месяц целиком и за предыдущие месяцы, начиная с января 2011 года, Вы можете получить, выбрав интересующий диапазон дат из раскрывающегося списка и нажав кнопку "Ввод!".


*Определитесь, кто Вы:
робот инопланетянин человек

Внимание! Время в таблицах - всемирное. Для получения местного времени необходимо прибавить поправку, которая равна 5 ч.

Смотрите также архив погоды в соседних городах и на ближайших метеорологических станциях:

Погода в Уренгое (Ямало-Ненецкий АО, Россия) (75 км)
Погода в Пангодах (Ямало-Ненецкий АО, Россия) (108 км)
Погода в Тарко-Сале (Ямало-Ненецкий АО, Россия) (140 км)
Погода в Тазовском (Ямало-Ненецкий АО, Россия) (175 км)
Погода в Ныде (Ямало-Ненецкий АО, Россия) (181 км)
Погода в Надыме (Ямало-Ненецкий АО, Россия) (200 км)
Погода в Новом Порте (Ямало-Ненецкий АО, Россия) (245 км)
Погода в Красноселькупске (Ямало-Ненецкий АО, Россия) (261 км)
Погода в Лонг-Югане (Ямало-Ненецкий АО, Россия) (307 км)
Погода в Халясавэе (Ямало-Ненецкий АО, Россия) (311 км)

Пояснения к столбцам:

Ветер - указаны скорость ветра в м/с - средняя за 10 мин, порывы в срок и между сроками (в фигурных скобках) и направление, откуда дует ветер: С - северный, СВ - северо-восточный, В - восточный, ЮВ - юго-восточный, Ю - южный, ЮЗ - юго-западный, З - западный, СЗ - северо-западный.
Видимость - горизонтальная дальность видимости в метрах или километрах. При видимости от 1 до 10 км при отсутствии осадков обычно наблюдается дымка, при ухудшении видимости до 1 км и менее - туман. В сухую погоду видимость может ухудшаться дымом, пылью или мглою.
Явления - указаны атмосферные явления, наблюдавшиеся в срок или в последний час перед сроком; фигурными скобками обозначены явления, наблюдавшиеся между сроками (за 1-3 часа до срока); квадратными скобками обозначены град или гололедные отложения с указанием их диаметра в мм.
Облачность - указаны через наклонную черту общая и нижняя облачность в баллах и высота нижней границы облаков в метрах; квадратными скобками обозначены формы облаков: Ci - перистые, Cs - перисто-слоистые, Cc - перисто-кучевые, Ac - высококучевые, As - высокослоистые, Sc - слоисто-кучевые, Ns - слоисто-дождевые, Cu - кучевые, Cb - кучево-дождевые. Подробнее классификацию облаков см. в Атласе облаков (PDF).
T - Температура воздуха - температура, измеренная на высоте 2 м над землей.
Td - Температура точки росы - температура, при понижении до которой содержащийся в воздухе водяной пар достигнет насыщения.
f - Относительная влажность воздуха - влажноcть воздуха, измеренная на высоте 2 м над землей.
Te - Эффективная температура - температура, которую ощущает одетый по сезону человек в тени. Характеристика душности погоды. При расчете учитывается влияние влажности воздуха и скорости ветра на теплоощущения человека.
Tes - Эффективная температура на солнце - температура, которую ощущает человек, с поправкой на солнечный нагрев. Характеристика знойности погоды. Зависит от высоты солнца над горизонтом, облачности и скорости ветра. Ночью, в пасмурную погоду, а также при ветре 12 м/с и более поправка равна нулю.
P - Атмосферное давление - приведенное к уровню моря атмосферное давление.
Po - Атмосферное давление - измеренное на уровне метеостанции атмосферное давление.
Tmin - Минимальная температура - минимум температуры воздуха на высоте 2 м над землей.
Tmax - Максимальная температура - максимум температуры воздуха на высоте 2 м над землей.
R - Количество осадков - Количество выпавших осадков за период времени, мм. При наведении курсора мыши на число - период времени, за который выпало указанное количество осадков.
R24 - Количество осадков - Количество выпавших осадков за 24 часа, мм.
S - Снежный покров - Высота снежного покрова, см. При наведении курсора мыши на число - состояние снежного покрова и степень покрытия местности в баллах.